[[{"header":{"parameterUnit":"m.s-1","parameterCategory":1,"la1":30.2991,"la2":30.254,"lo1":-89.0895,"lo2":-89.0444,"dy":0.0017,"dx":0.0017,"nx":28,"ny":28,"refTime":"2025-03-04T09:00:00:Z","depth":0,"parameterNumber":2,"parameterNumberName":"U-component_of_WINDS"},"data":[0,0,0,0,0,0,0,0,0,0,0,0,0,0,0,0,0,0,0,0,0,0,0,0,0,0,0,0,0,0,0,0,0,0,0,0,0,0,0,0,0,0,0,0,0,0,0,0,0,0,0,0,0,0,0,0,0,0,-5.1033,-5.1035,0,-5.1157,-5.1158,-5.116,-5.1169,-5.1168,-5.1167,-5.1165,-5.129,-5.1295,-5.1299,0,0,0,0,0,0,0,0,0,0,0,0,0,-5.0804,-5.0808,-5.1033,-5.1035,-5.1036,-5.1157,-5.1158,-5.116,-5.117,-5.1168,-5.1166,-5.1165,-5.1289,-5.1294,-5.13,0,0,0,0,0,0,0,0,0,0,0,0,0,-5.0913,-5.081,-5.1033,-5.1056,-5.1059,-5.1156,-5.1159,-5.1161,-5.117,-5.1168,-5.1166,-5.1164,-5.1287,-5.1294,-5.13,-5.1383,0,0,-5.1321,-5.1324,0,0,0,0,0,0,0,0,-5.0907,-5.0922,-5.1051,-5.1054,-5.1058,-5.1146,-5.1124,-5.1235,-5.117,-5.1128,-5.1165,-5.1163,-5.1244,-5.1254,-5.1282,-5.1389,-5.1395,-5.1322,-5.1326,-5.1329,-5.1331,0,0,0,0,0,0,0,-5.0899,-5.0916,-5.1082,-5.1053,-5.1057,-5.1059,-5.1072,-5.1145,-5.1195,-5.1131,-5.1132,-5.1147,-5.1245,-5.1275,-5.1285,-5.1396,-5.1322,-5.1328,-5.1332,-5.1335,-5.1578,-5.158,0,0,0,0,0,0,-5.0888,-5.091,-5.1078,-5.1086,-5.0976,-5.1065,-5.108,-5.112,-5.1195,-5.1204,-5.1148,-5.1147,-5.1264,-5.1277,-5.1289,-5.139,-5.1329,-5.1336,-5.134,-5.1576,-5.1579,-5.1581,0,0,0,0,0,0,-5.0883,-5.0903,-5.1073,-5.0998,-5.102,-5.1071,-5.1116,-5.1123,-5.1153,-5.1208,-5.1217,-5.1169,-5.1263,-5.1279,-5.136,-5.1395,-5.1339,-5.1345,-5.1573,-5.1577,-5.158,-5.1593,0,0,0,0,0,0,-5.0876,-5.0901,-5.0933,-5.0999,-5.1024,-5.1142,-5.1118,-5.1127,-5.1165,-5.1164,-5.123,-5.1239,-5.1263,-5.135,-5.1367,-5.1403,-5.135,-5.157,-5.1575,-5.1579,-5.159,-5.1597,-5.1603,0,0,0,0,0,-5.0868,-5.0932,-5.0935,-5.0955,-5.1065,-5.1144,-5.1159,-5.1185,-5.1168,-5.12,-5.1236,-5.1237,-5.1389,-5.1358,-5.1377,-5.1416,-5.1568,-5.1573,-5.1578,-5.1587,-5.1596,-5.1603,0,0,0,0,0,0,-5.0867,-5.0941,-5.0945,-5.1032,-5.1082,-5.1146,-5.1187,-5.1193,-5.1249,-5.1246,-5.1276,-5.1291,-5.137,-5.1402,-5.1366,-5.15,-5.1476,-5.1486,-5.1476,-5.1485,-5.1491,-5.1481,-5.1356,0,0,0,0,0,-5.0878,-5.0936,-5.0997,-5.1068,-5.1093,-5.1136,-5.1171,-5.1188,-5.124,-5.1261,-5.1303,-5.1354,-5.1413,-5.1451,-5.1509,-5.1596,-5.161,-5.1632,-5.1639,-5.1644,-5.165,-5.1698,-5.1708,-5.1598,-5.1598,-5.1598,0,0,-5.0899,-5.0946,-5.0981,-5.1069,-5.1109,-5.1168,-5.1153,-5.1217,-5.126,-5.1271,-5.1349,-5.1382,-5.144,-5.1524,-5.1563,-5.1553,-5.1684,-5.165,-5.1654,-5.1658,-5.1705,-5.1715,-5.1724,-5.1602,-5.1601,-5.1601,0,0,-5.0967,-5.1009,-5.1073,-5.1114,-5.1176,-5.1205,-5.122,-5.1284,-5.1306,-5.1385,-5.1394,-5.1447,-5.1549,-5.159,-5.1624,-5.171,-5.1713,-5.1728,-5.176,-5.1807,-5.1815,-5.1823,-5.1852,-5.1862,-5.1735,-5.1735,-5.1736,0,-5.0985,-5.1075,-5.1104,-5.1167,-5.1205,-5.1219,-5.1283,-5.1321,-5.1399,-5.1425,-5.1412,-5.154,-5.1581,-5.1674,-5.1695,-5.1723,-5.1741,-5.1719,-5.1812,-5.182,-5.1827,-5.1855,-5.1866,-5.1737,-5.1737,-5.1737,-5.1736,0,-5.1093,-5.1156,-5.1199,-5.1274,-5.1318,-5.1381,-5.1419,-5.146,-5.1473,-5.1503,-5.1583,-5.1633,-5.1701,-5.1725,-5.1738,-5.182,-5.1812,-5.1805,-5.1781,-5.1839,-5.1865,-5.1876,-5.1739,-5.1738,-5.1738,-5.1737,0,0,-5.1162,-5.1254,-5.1269,-5.1303,-5.1374,-5.1422,-5.1486,-5.1553,-5.1586,-5.164,-5.1694,-5.178,-5.1775,-5.1814,-5.1833,-5.1874,-5.1937,-5.1862,-5.1864,-5.1872,-5.2029,-5.2031,-5.2043,-5.194,-5.1942,-5.1944,-5.2023,0,-5.1237,-5.1351,-5.138,-5.1477,-5.1534,-5.1549,-5.1605,-5.1654,-5.1684,-5.1736,-5.177,-5.183,-5.1819,-5.1843,-5.1884,-5.192,-5.1968,-5.1915,-5.1989,-5.1991,-5.1971,-5.2057,-5.206,-5.2132,-5.2034,-5.2036,-5.2037,0,-5.1339,-5.1395,-5.1498,-5.1561,-5.1586,-5.1635,-5.1699,-5.175,-5.1806,-5.1825,-5.1869,-5.1884,-5.1951,-5.1926,-5.2018,-5.1981,-5.2014,-5.2036,-5.204,-5.2045,-5.2015,-5.2063,-5.2156,-5.2166,-5.2054,-5.2053,-5.2051,0,-5.1376,-5.1478,-5.1553,-5.1582,-5.1657,-5.1692,-5.1725,-5.1779,-5.1817,-5.1873,-5.1898,-5.1961,-5.1995,-5.2043,-5.2075,-5.2054,-5.2164,-5.2142,-5.2181,-5.218,-5.2201,-5.2198,-5.2297,-5.2226,-5.2225,-5.2225,-5.2225,0,-5.1455,-5.1517,-5.157,-5.1616,-5.1686,-5.1719,-5.1787,-5.182,-5.1869,-5.1921,-5.1938,-5.1986,-5.2026,-5.208,-5.2105,-5.2177,-5.2193,-5.2209,-5.2215,-5.2206,-5.2204,-5.2226,-5.2221,-5.2228,-5.2228,-5.2227,-5.2226,0,-5.1508,-5.1547,-5.1628,-5.1694,-5.1712,-5.176,-5.1816,-5.1861,-5.1892,-5.1958,-5.1975,-5.2024,-5.2088,-5.2125,-5.2206,-5.2223,-5.2302,-5.2307,-5.2283,-5.2285,-5.2321,-5.2316,-5.2436,-5.2453,-5.2371,-5.2372,-5.2373,0,-5.1555,-5.1603,-5.1674,-5.171,-5.1744,-5.1802,-5.1841,-5.1876,-5.1917,-5.1985,-5.2021,-5.2086,-5.214,-5.2242,-5.2285,-5.2347,-5.2352,-5.2389,-5.2361,-5.2351,-5.235,-5.2346,-5.235,-5.2393,-5.2394,-5.2394,-5.2395,0,-5.1633,-5.165,-5.1706,-5.1769,-5.1816,-5.1867,-5.1918,-5.1947,-5.1991,-5.2035,-5.2101,-5.2143,-5.2226,-5.2291,-5.2356,-5.239,-5.24,-5.2404,-5.2416,-5.2407,-5.239,-5.2398,-5.2294,-5.24,-5.24,-5.2399,-5.2399,-5.2399,-5.1683,-5.1726,-5.1783,-5.1845,-5.1887,-5.1935,-5.1979,-5.2017,-5.2073,-5.2143,-5.2161,-5.223,-5.2285,-5.2374,-5.241,-5.2465,-5.2458,-5.2476,-5.248,-5.2483,-5.2483,-5.2384,-5.2477,-5.2477,-5.2477,-5.2477,-5.2477,0,-5.1761,-5.1798,-5.1855,-5.1926,-5.1975,-5.1981,-5.2038,-5.2078,-5.2139,-5.219,-5.2243,-5.2319,-5.2382,-5.243,-5.2494,-5.2528,-5.2534,-5.2544,-5.254,-5.2548,-5.2486,-5.2468,-5.2538,-5.2538,-5.2538,-5.2538,-5.2538,-5.2538,-5.1807,-5.1879,-5.1903,-5.1997,-5.2034,-5.2102,-5.2134,-5.2178,-5.2218,-5.2302,-5.2355,-5.2386,-5.2436,-5.2504,-5.2562,-5.2575,-5.2596,-5.2605,-5.2618,-5.2559,-5.2552,-5.2546,-5.2529,-5.261,-5.261,-5.2675,-5.2675,-5.2676]},{"header":{"parameterUnit":"m.s-1","parameterCategory":1,"la1":30.2991,"la2":30.254,"lo1":-89.0895,"lo2":-89.0444,"dy":0.0017,"dx":0.0017,"nx":28,"ny":28,"refTime":"2025-03-04T09:00:00:Z","depth":0,"parameterNumber":3,"parameterNumberName":"V-component_of_WINDS"},"data":[0,0,0,0,0,0,0,0,0,0,0,0,0,0,0,0,0,0,0,0,0,0,0,0,0,0,0,0,0,0,0,0,0,0,0,0,0,0,0,0,0,0,0,0,0,0,0,0,0,0,0,0,0,0,0,0,0,0,5.2079,5.208,0,5.2155,5.2155,5.2156,5.2131,5.2129,5.2127,5.2126,5.2197,5.22,5.2204,0,0,0,0,0,0,0,0,0,0,0,0,0,5.1909,5.1912,5.2079,5.208,5.2081,5.2154,5.2155,5.2156,5.2131,5.2129,5.2127,5.2125,5.2196,5.22,5.2204,0,0,0,0,0,0,0,0,0,0,0,0,0,5.1983,5.1913,5.2078,5.2077,5.2077,5.2154,5.2156,5.2157,5.2131,5.2129,5.2126,5.2124,5.2195,5.22,5.2205,5.2286,0,0,5.2221,5.2223,0,0,0,0,0,0,0,0,5.1979,5.1989,5.2076,5.2077,5.2078,5.2131,5.2122,5.22,5.2132,5.2111,5.2126,5.2123,5.2177,5.2183,5.2203,5.2289,5.2292,5.2221,5.2224,5.2226,5.2228,0,0,0,0,0,0,0,5.1974,5.1986,5.2108,5.2077,5.2079,5.2071,5.2079,5.2136,5.2156,5.2112,5.2111,5.212,5.2177,5.2198,5.2204,5.2293,5.2221,5.2225,5.2229,5.2231,5.2454,5.2457,0,0,0,0,0,0,5.1969,5.1982,5.2106,5.2111,5.2022,5.2076,5.2085,5.2116,5.2156,5.2159,5.2122,5.2119,5.219,5.2198,5.2206,5.2306,5.2226,5.2231,5.2234,5.2451,5.2455,5.2458,0,0,0,0,0,0,5.1965,5.198,5.2103,5.2046,5.2061,5.2082,5.2117,5.2119,5.214,5.2163,5.2166,5.214,5.2188,5.2199,5.2268,5.2308,5.2233,5.2238,5.2448,5.2452,5.2456,5.2505,0,0,0,0,0,0,5.1961,5.1979,5.201,5.2047,5.2064,5.2164,5.2119,5.2122,5.215,5.2146,5.2181,5.2184,5.2187,5.226,5.2273,5.2314,5.2242,5.2444,5.245,5.2455,5.25,5.2511,5.252,0,0,0,0,0,5.1955,5.2019,5.2012,5.2027,5.2104,5.2166,5.2176,5.218,5.2153,5.2185,5.22,5.2183,5.2302,5.2267,5.2281,5.2325,5.2442,5.2448,5.2455,5.2496,5.2509,5.252,0,0,0,0,0,0,5.1983,5.2023,5.2016,5.2095,5.2128,5.2162,5.2201,5.2193,5.2232,5.2226,5.2228,5.2236,5.2307,5.2323,5.2283,5.2407,5.2368,5.2377,5.2394,5.2407,5.2417,5.2411,5.2246,0,0,0,0,0,5.1999,5.2047,5.2079,5.2145,5.2163,5.218,5.2207,5.2208,5.2241,5.2254,5.2274,5.2306,5.2351,5.2379,5.2422,5.2503,5.2511,5.254,5.255,5.2558,5.2566,5.2613,5.2627,5.2479,5.2479,5.2479,0,0,5.2031,5.2059,5.2089,5.2152,5.2178,5.2228,5.2191,5.2244,5.2281,5.2261,5.2328,5.2345,5.238,5.2456,5.2491,5.2471,5.2609,5.2566,5.2572,5.2576,5.2621,5.2635,5.2647,5.2483,5.2483,5.2482,0,0,5.2115,5.2141,5.2201,5.2229,5.227,5.2281,5.2296,5.2333,5.2344,5.2412,5.2399,5.2442,5.2518,5.2546,5.2569,5.267,5.2656,5.2683,5.2734,5.278,5.2792,5.2802,5.2839,5.2853,5.2691,5.2691,5.2691,0,5.2149,5.2225,5.2232,5.2288,5.2317,5.2305,5.2366,5.2391,5.2443,5.2463,5.2441,5.254,5.2563,5.2646,5.2672,5.2691,5.2708,5.2678,5.279,5.28,5.281,5.2846,5.2859,5.2694,5.2694,5.2694,5.2694,0,5.2266,5.232,5.2363,5.2417,5.2451,5.2508,5.2523,5.2557,5.2556,5.257,5.2641,5.2669,5.2718,5.2738,5.2735,5.2822,5.281,5.2789,5.2749,5.2827,5.2861,5.2874,5.2699,5.2698,5.2697,5.2696,0,0,5.2367,5.2428,5.2444,5.247,5.2517,5.2557,5.2616,5.2667,5.2696,5.2733,5.2782,5.285,5.2833,5.286,5.2861,5.2901,5.2982,5.2876,5.2877,5.2896,5.3082,5.3097,5.3113,5.2974,5.2977,5.2979,5.3079,0,5.2456,5.2561,5.2571,5.2664,5.2715,5.2707,5.2758,5.2792,5.2807,5.2851,5.2868,5.2917,5.2889,5.2906,5.2946,5.2964,5.3019,5.2957,5.3019,5.3022,5.3011,5.313,5.3146,5.3239,5.3092,5.3094,5.3096,0,5.2573,5.2618,5.2718,5.2762,5.2783,5.2829,5.2879,5.2922,5.2961,5.2969,5.3003,5.3,5.306,5.3019,5.3103,5.306,5.3087,5.31,5.3104,5.3109,5.3063,5.314,5.3269,5.3284,5.3117,5.3115,5.3113,0,5.2639,5.2724,5.2796,5.2818,5.287,5.2903,5.2926,5.2963,5.2995,5.3038,5.3059,5.3107,5.3134,5.3172,5.3182,5.3151,5.3266,5.3226,5.3275,5.3275,5.3299,5.3297,5.3435,5.3316,5.3315,5.3315,5.3315,0,5.2738,5.2799,5.2827,5.2871,5.294,5.2952,5.302,5.304,5.3074,5.3122,5.3117,5.3162,5.3173,5.322,5.3228,5.3298,5.3309,5.3318,5.3319,5.3319,5.3318,5.3336,5.333,5.3319,5.3318,5.3317,5.3317,0,5.2822,5.2842,5.2921,5.2966,5.2979,5.3028,5.3066,5.3108,5.3125,5.3186,5.3201,5.3226,5.3282,5.3297,5.3362,5.3368,5.345,5.3445,5.3438,5.3438,5.3487,5.3482,5.3641,5.3663,5.3529,5.353,5.3531,0,5.2883,5.2931,5.2983,5.3017,5.3042,5.3095,5.3129,5.3142,5.3178,5.3229,5.3265,5.3321,5.3366,5.3455,5.3479,5.3529,5.3526,5.3578,5.3533,5.3532,5.3528,5.3526,5.3531,5.3586,5.3588,5.3589,5.359,0,5.2991,5.3,5.305,5.3106,5.3147,5.319,5.3231,5.3259,5.3278,5.3318,5.3377,5.3412,5.3482,5.3537,5.359,5.3612,5.3605,5.3605,5.3619,5.3618,5.3613,5.3618,5.3462,5.36,5.3599,5.3598,5.3598,5.3597,5.3066,5.311,5.3155,5.3212,5.3246,5.3286,5.333,5.3354,5.3404,5.3464,5.3468,5.3532,5.3573,5.3643,5.3669,5.3719,5.3703,5.3723,5.3729,5.3734,5.3739,5.3606,5.3728,5.3728,5.3728,5.3727,5.3727,0,5.3175,5.3205,5.3258,5.3318,5.3364,5.3357,5.3403,5.3441,5.3499,5.3539,5.3585,5.3654,5.3709,5.3739,5.3794,5.3828,5.3826,5.3842,5.384,5.3846,5.3749,5.3732,5.3843,5.3843,5.3843,5.3843,5.3843,5.3843,5.3237,5.3312,5.3328,5.342,5.3449,5.3514,5.3542,5.3579,5.3612,5.369,5.3737,5.3758,5.3794,5.3852,5.3903,5.391,5.3931,5.3949,5.3955,5.3864,5.3852,5.384,5.3824,5.3953,5.3953,5.4047,5.4048,5.4049]}]]